Weather in Sittwe

Myanmar     20°08′27″N   92°52′32″E
temp.,
°C
wind,
m/s
gust,
m/s
humid.,
%
clouds,
%
prec.,
mm/h
press.,
hPa
HPBL,
m
5 december, sun
sun500:30+23ne2275100 0.0 101443
03:30+23ne2273100 0.0 101386
06:30+23ne237690 0.0 101486
09:30+25nne226697 0.0 1016206
12:30+25n2264100 0.0 1014209
15:30+29wsw215681 0.0 1011829
18:30+25wsw22745 0.0 1012114
21:30+24nw117827 0.0 1014108
6 december, mon
mon600:30+23ne118314 0.0 101344
03:30+22ne22879 0.1 101263
06:30+22ene22865 0.1 101357
09:30+27ese236973 0.0 1015474
12:30+29s336487 1.4 10131025
15:30+28ssw336885 2.4 1011794
18:30+25wsw2282100 3.1 1013162
21:30+24nne2287100 0.3 101445
7 december, tue
tue700:30+23ene229111 0.3 101345
03:30+23ene229199 0.0 101283
06:30+23ene228998 0.0 101493
09:30+26ne227738 0.0 1016271
12:30+29sw325950 0.1 10131243
15:30+27sw346557 0.1 1011547
18:30+26w127595 0.2 1013167
21:30+25nw118360 0.6 101587
8 december, wed
wed800:30+23ne119018 2.1 101461
03:30+22nne22941 0.3 101468
06:30+22ne22942 0.3 101459
09:30+26ne217618 0.0 1017379
12:30+30wsw21592 0.0 10141154
15:30+29wsw44615 0.0 1012705
18:30+25wnw47725 0.0 1013253
21:30+24nw24735 0.0 1015148
9 december, thu
thu900:30+23nnw348093 0.0 1015112
03:30+22nne2484100 0.0 1014108
06:30+22nne22858 0.0 101577
09:30+27ne226729 0.0 1017403
12:30+30sw2156100 0.0 10151080
15:30+28wsw4462100 0.0 1013546
18:30+25wnw477624 0.0 1014276
21:30+24nw36850 0.0 1016208